owner,sensor,date,latitude,longitude,vertical_datum,wind_speed,wind_to_direction,wind_speed_of_gust,qcFlag 
TABS,ioos:station:wmo:42047:1,2017-03-01T00:00:00Z,27.8966,-93.5973,4.0,9.3855474,170.6181985,11.0,'11111222,11111222,11111222' 
TABS,ioos:station:wmo:42047:1,2017-03-01T00:30:00Z,27.8966,-93.5973,4.0,8.903128664,169.7126562,10.36,'11111222,11111222,11111222' 
TABS,ioos:station:wmo:42047:1,2017-03-01T01:00:00Z,27.8966,-93.5973,4.0,8.323010273,172.4055848,10.29,'11111222,11111222,11111222' 
TABS,ioos:station:wmo:42047:1,2017-03-01T01:30:00Z,27.8966,-93.5973,4.0,8.681710661,174.3815663,10.06,'11111222,11111222,11111222' 
TABS,ioos:station:wmo:42047:1,2017-03-01T02:00:00Z,27.8966,-93.5973,4.0,8.335010498,176.5610987,9.55,'11111222,11111222,11111222' 
TABS,ioos:station:wmo:42047:1,2017-03-01T02:30:00Z,27.8966,-93.5973,4.0,8.799096545,177.3946976,10.51,'11111222,11111222,11111222' 
TABS,ioos:station:wmo:42047:1,2017-03-01T03:00:00Z,27.8966,-93.5973,4.0,7.841479452,175.758428,9.89,'11111222,11111222,11111222' 
TABS,ioos:station:wmo:42047:1,2017-03-01T03:30:00Z,27.8966,-93.5973,4.0,8.468529979,177.4283759,9.65,'11111222,11111222,11111222' 
TABS,ioos:station:wmo:42047:1,2017-03-01T04:00:00Z,27.8966,-93.5973,4.0,8.202908021,176.7855176,9.99,'11111222,11111222,11111222' 
TABS,ioos:station:wmo:42047:1,2017-03-01T04:30:00Z,27.8966,-93.5973,4.0,8.013301442,178.3554691,9.28,'11111222,11111222,11111222' 
TABS,ioos:station:wmo:42047:1,2017-03-01T05:00:00Z,27.8966,-93.5973,4.0,8.622557625,178.6046529,10.63,'11111222,11111222,11111222' 
TABS,ioos:station:wmo:42047:1,2017-03-01T05:30:00Z,27.8966,-93.5973,4.0,8.310728007,179.2418286,9.77,'11111222,11111222,11111222' 
TABS,ioos:station:wmo:42047:1,2017-03-01T06:00:00Z,27.8966,-93.5973,4.0,9.128439078,175.4763529,10.76,'11111222,11111222,11111222' 
TABS,ioos:station:wmo:42047:1,2017-03-01T06:30:00Z,27.8966,-93.5973,4.0,8.162971273,176.7697733,9.98,'11111222,11111222,11111222' 
TABS,ioos:station:wmo:42047:1,2017-03-01T07:00:00Z,27.8966,-93.5973,4.0,8.364364889,176.6418025,11.13,'11111222,11111222,11111222' 
TABS,ioos:station:wmo:42047:1,2017-03-01T07:30:00Z,27.8966,-93.5973,4.0,9.596353474,176.6547939,11.43,'11111222,11111222,11111222' 
TABS,ioos:station:wmo:42047:1,2017-03-01T08:00:00Z,27.8966,-93.5973,4.0,8.972847931,176.9337321,11.04,'11111222,11111222,11111222' 
TABS,ioos:station:wmo:42047:1,2017-03-01T08:30:00Z,27.8966,-93.5973,4.0,8.197151944,176.2930827,9.94,'11111222,11111222,11111222' 
TABS,ioos:station:wmo:42047:1,2017-03-01T09:00:00Z,27.8966,-93.5973,4.0,8.982761268,173.2233159,10.6,'11111222,11111222,11111222' 
TABS,ioos:station:wmo:42047:1,2017-03-01T09:30:00Z,27.8966,-93.5973,4.0,9.485172639,173.2798026,12.16,'11111222,11111222,11111222' 
TABS,ioos:station:wmo:42047:1,2017-03-01T10:00:00Z,27.8966,-93.5973,4.0,7.655148594,175.3546766,8.93,'11111222,11111222,11111222' 
TABS,ioos:station:wmo:42047:1,2017-03-01T10:30:00Z,27.8966,-93.5973,4.0,8.797368925,174.7173473,10.55,'11111222,11111222,11111222' 
TABS,ioos:station:wmo:42047:1,2017-03-01T11:00:00Z,27.8966,-93.5973,4.0,8.760022831,180.1310222,10.73,'11111222,11111222,11111222' 
TABS,ioos:station:wmo:42047:1,2017-03-01T11:30:00Z,27.8966,-93.5973,4.0,7.970972337,186.483269,9.93,'11111222,11111222,11111222' 
TABS,ioos:station:wmo:42047:1,2017-03-01T12:00:00Z,27.8966,-93.5973,4.0,6.910636729,195.7861302,9.51,'11111222,11111222,11111222' 
TABS,ioos:station:wmo:42047:1,2017-03-01T12:30:00Z,27.8966,-93.5973,4.0,4.424409565,218.7610501,5.21,'11111222,11111222,11111222' 
TABS,ioos:station:wmo:42047:1,2017-03-01T13:00:00Z,27.8966,-93.5973,4.0,4.052270968,235.7609938,4.59,'11111222,11111222,11111222' 
TABS,ioos:station:wmo:42047:1,2017-03-01T13:30:00Z,27.8966,-93.5973,4.0,3.389173941,222.9675012,4.05,'11111222,11111222,11111222' 
TABS,ioos:station:wmo:42047:1,2017-03-01T14:00:00Z,27.8966,-93.5973,4.0,2.7759683,203.7949902,3.27,'11111222,11111222,11111222' 
TABS,ioos:station:wmo:42047:1,2017-03-01T14:30:00Z,27.8966,-93.5973,4.0,2.28790297,184.763841,2.69,'11111222,11111222,11111222' 
TABS,ioos:station:wmo:42047:1,2017-03-01T15:00:00Z,27.8966,-93.5973,4.0,1.86118242,188.652732,2.24,'11111222,11111222,11111222' 
TABS,ioos:station:wmo:42047:1,2017-03-01T15:30:00Z,27.8966,-93.5973,4.0,1.821647606,160.7695831,2.24,'11111222,11111222,11111222' 
TABS,ioos:station:wmo:42047:1,2017-03-01T16:00:00Z,27.8966,-93.5973,4.0,1.546900126,196.9122777,2.06,'11111222,11111222,11111222' 
TABS,ioos:station:wmo:42047:1,2017-03-01T16:30:00Z,27.8966,-93.5973,4.0,0.644049688,233.8418991,1.07,'11111222,11111222,11111222' 
TABS,ioos:station:wmo:42047:1,2017-03-01T17:00:00Z,27.8966,-93.5973,4.0,0.827647268,191.8531869,1.4,'11111222,11111222,11111222' 
TABS,ioos:station:wmo:42047:1,2017-03-01T17:30:00Z,27.8966,-93.5973,4.0,0.923579991,303.5179303,2.29,'11111222,11111222,11111222' 
TABS,ioos:station:wmo:42047:1,2017-03-01T18:00:00Z,27.8966,-93.5973,4.0,3.331095916,318.8948638,4.18,'11111222,11111222,11111222' 
TABS,ioos:station:wmo:42047:1,2017-03-01T18:30:00Z,27.8966,-93.5973,4.0,2.543717752,348.2039645,3.91,'11111222,11111222,11111222' 
TABS,ioos:station:wmo:42047:1,2017-03-01T19:00:00Z,27.8966,-93.5973,4.0,3.298620924,353.9089727,4.24,'11111222,11111222,11111222' 
TABS,ioos:station:wmo:42047:1,2017-03-01T19:30:00Z,27.8966,-93.5973,4.0,2.145530237,8.847447272,2.59,'11111222,11111222,11111222' 
TABS,ioos:station:wmo:42047:1,2017-03-01T20:00:00Z,27.8966,-93.5973,4.0,1.648302157,46.72049512,2.05,'11111222,11111222,11111222' 
TABS,ioos:station:wmo:42047:1,2017-03-01T20:30:00Z,27.8966,-93.5973,4.0,1.797887649,62.86450291,2.28,'11111222,11111222,11111222' 
TABS,ioos:station:wmo:42047:1,2017-03-01T21:00:00Z,27.8966,-93.5973,4.0,2.14140141,122.7998755,2.58,'11111222,11111222,11111222' 
TABS,ioos:station:wmo:42047:1,2017-03-01T21:30:00Z,27.8966,-93.5973,4.0,1.015135459,108.9707844,1.5,'11111222,11111222,11111222' 
TABS,ioos:station:wmo:42047:1,2017-03-01T22:00:00Z,27.8966,-93.5973,4.0,1.312440475,144.6148625,1.72,'11111222,11111222,11111222' 
TABS,ioos:station:wmo:42047:1,2017-03-01T22:30:00Z,27.8966,-93.5973,4.0,1.591005971,134.7456701,2.02,'11111222,11111222,11111222' 
TABS,ioos:station:wmo:42047:1,2017-03-01T23:00:00Z,27.8966,-93.5973,4.0,1.91637679,135.6345589,2.76,'11111222,11111222,11111222' 
TABS,ioos:station:wmo:42047:1,2017-03-01T23:30:00Z,27.8966,-93.5973,4.0,2.761756687,155.848197,3.23,'11111222,11111222,11111222' 
TABS,ioos:station:wmo:42047:1,2017-03-02T00:00:00Z,27.8966,-93.5973,4.0,2.982767172,162.8410308,3.51,'11111222,11111222,11111222' 
TABS,ioos:station:wmo:42047:1,2017-03-02T00:30:00Z,27.8966,-93.5973,4.0,1.903785702,170.9337289,2.66,'11111222,11111222,11111222' 
TABS,ioos:station:wmo:42047:1,2017-03-02T01:00:00Z,27.8966,-93.5973,4.0,1.210495766,192.8883654,1.52,'11111222,11111222,11111222' 
TABS,ioos:station:wmo:42047:1,2017-03-02T01:30:00Z,27.8966,-93.5973,4.0,0.79649231,231.1155945,1.12,'11111222,11111222,11111222' 
TABS,ioos:station:wmo:42047:1,2017-03-02T02:00:00Z,27.8966,-93.5973,4.0,0.850058821,269.3259647,1.21,'11111222,11111222,11111222' 
TABS,ioos:station:wmo:42047:1,2017-03-02T02:30:00Z,27.8966,-93.5973,4.0,0.796994354,287.5255274,1.22,'11111222,11111222,11111222' 
TABS,ioos:station:wmo:42047:1,2017-03-02T03:00:00Z,27.8966,-93.5973,4.0,1.542076522,316.5764411,2.01,'11111222,11111222,11111222' 
TABS,ioos:station:wmo:42047:1,2017-03-02T03:30:00Z,27.8966,-93.5973,4.0,3.150063491,321.0560103,4.58,'11111222,11111222,11111222' 
TABS,ioos:station:wmo:42047:1,2017-03-02T04:00:00Z,27.8966,-93.5973,4.0,8.76329276,340.8825789,10.08,'11111222,11111222,11111222' 
TABS,ioos:station:wmo:42047:1,2017-03-02T04:30:00Z,27.8966,-93.5973,4.0,11.81270502,13.21250552,14.76,'11111222,11111222,11111222' 
TABS,ioos:station:wmo:42047:1,2017-03-02T05:00:00Z,27.8966,-93.5973,4.0,11.94288072,20.5894768,15.93,'11111222,11111222,11111222' 
TABS,ioos:station:wmo:42047:1,2017-03-02T05:30:00Z,27.8966,-93.5973,4.0,11.51987847,11.21215456,13.83,'11111222,11111222,11111222' 
TABS,ioos:station:wmo:42047:1,2017-03-02T06:00:00Z,27.8966,-93.5973,4.0,11.03366213,28.3532343,13.68,'11111222,11111222,11111222' 
TABS,ioos:station:wmo:42047:1,2017-03-02T06:30:00Z,27.8966,-93.5973,4.0,11.40577047,34.49788312,14.42,'11111222,11111222,11111222' 
TABS,ioos:station:wmo:42047:1,2017-03-02T07:00:00Z,27.8966,-93.5973,4.0,11.37525824,29.60715697,13.93,'11111222,11111222,11111222' 
TABS,ioos:station:wmo:42047:1,2017-03-02T07:30:00Z,27.8966,-93.5973,4.0,10.34452996,31.92290317,12.81,'11111222,11111222,11111222' 
TABS,ioos:station:wmo:42047:1,2017-03-02T08:00:00Z,27.8966,-93.5973,4.0,11.45316114,34.57779662,13.8,'11111222,11111222,11111222' 
TABS,ioos:station:wmo:42047:1,2017-03-02T08:30:00Z,27.8966,-93.5973,4.0,10.85608125,36.64793506,13.82,'11111222,11111222,11111222' 
TABS,ioos:station:wmo:42047:1,2017-03-02T09:00:00Z,27.8966,-93.5973,4.0,11.36040932,33.9835278,13.49,'11111222,11111222,11111222' 
TABS,ioos:station:wmo:42047:1,2017-03-02T09:30:00Z,27.8966,-93.5973,4.0,11.05474106,36.20617462,13.63,'11111222,11111222,11111222' 
TABS,ioos:station:wmo:42047:1,2017-03-02T10:00:00Z,27.8966,-93.5973,4.0,11.12387073,39.9305686,13.88,'11111222,11111222,11111222' 
TABS,ioos:station:wmo:42047:1,2017-03-02T10:30:00Z,27.8966,-93.5973,4.0,11.18713994,42.86250838,14.25,'11111222,11111222,11111222' 
TABS,ioos:station:wmo:42047:1,2017-03-02T11:00:00Z,27.8966,-93.5973,4.0,11.00976385,44.74209483,14.26,'11111222,11111222,11111222' 
TABS,ioos:station:wmo:42047:1,2017-03-02T11:30:00Z,27.8966,-93.5973,4.0,11.20589577,41.05575105,14.56,'11111222,11111222,11111222' 
TABS,ioos:station:wmo:42047:1,2017-03-02T12:00:00Z,27.8966,-93.5973,4.0,10.90885879,48.41847781,14.32,'11111222,11111222,11111222' 
TABS,ioos:station:wmo:42047:1,2017-03-02T12:30:00Z,27.8966,-93.5973,4.0,11.00578939,50.97399363,14.53,'11111222,11111222,11111222' 
TABS,ioos:station:wmo:42047:1,2017-03-02T13:00:00Z,27.8966,-93.5973,4.0,11.29740236,52.2269896,14.27,'11111222,11111222,11111222' 
TABS,ioos:station:wmo:42047:1,2017-03-02T13:30:00Z,27.8966,-93.5973,4.0,10.99630847,49.64704702,14.17,'11111222,11111222,11111222' 
TABS,ioos:station:wmo:42047:1,2017-03-02T14:00:00Z,27.8966,-93.5973,4.0,11.38195062,51.27696812,15.7,'11111222,11111222,11111222' 
TABS,ioos:station:wmo:42047:1,2017-03-02T14:30:00Z,27.8966,-93.5973,4.0,10.81090191,60.39938661,13.13,'11111222,11111222,11111222' 
TABS,ioos:station:wmo:42047:1,2017-03-02T15:00:00Z,27.8966,-93.5973,4.0,11.17372364,62.26498553,14.03,'11111222,11111222,11111222' 
TABS,ioos:station:wmo:42047:1,2017-03-02T15:30:00Z,27.8966,-93.5973,4.0,10.58000473,59.43525836,13.49,'11111222,11111222,11111222' 
TABS,ioos:station:wmo:42047:1,2017-03-02T16:00:00Z,27.8966,-93.5973,4.0,10.37909437,59.03589496,12.86,'11111222,11111222,11111222' 
TABS,ioos:station:wmo:42047:1,2017-03-02T16:30:00Z,27.8966,-93.5973,4.0,10.60676199,71.01804098,12.49,'11111222,11111222,11111222' 
TABS,ioos:station:wmo:42047:1,2017-03-02T17:00:00Z,27.8966,-93.5973,4.0,10.56648002,62.0037093,13.14,'11111222,11111222,11111222' 
TABS,ioos:station:wmo:42047:1,2017-03-02T17:30:00Z,27.8966,-93.5973,4.0,10.31738339,68.50758931,12.19,'11111222,11111222,11111222' 
TABS,ioos:station:wmo:42047:1,2017-03-02T18:00:00Z,27.8966,-93.5973,4.0,10.88797502,66.96687635,12.88,'11111222,11111222,11111222' 
TABS,ioos:station:wmo:42047:1,2017-03-02T18:30:00Z,27.8966,-93.5973,4.0,10.38976901,69.31449429,12.66,'11111222,11111222,11111222' 
TABS,ioos:station:wmo:42047:1,2017-03-02T19:00:00Z,27.8966,-93.5973,4.0,10.95467937,74.37751535,12.89,'11111222,11111222,11111222' 
TABS,ioos:station:wmo:42047:1,2017-03-02T19:30:00Z,27.8966,-93.5973,4.0,10.55009005,69.46900711,12.9,'11111222,11111222,11111222' 
TABS,ioos:station:wmo:42047:1,2017-03-02T20:00:00Z,27.8966,-93.5973,4.0,10.50536054,71.9786022,12.64,'11111222,11111222,11111222' 
TABS,ioos:station:wmo:42047:1,2017-03-02T20:30:00Z,27.8966,-93.5973,4.0,10.18010314,68.626728,12.53,'11111222,11111222,11111222' 
TABS,ioos:station:wmo:42047:1,2017-03-02T21:00:00Z,27.8966,-93.5973,4.0,9.801882472,64.95096224,12.03,'11111222,11111222,11111222' 
TABS,ioos:station:wmo:42047:1,2017-03-02T21:30:00Z,27.8966,-93.5973,4.0,9.770511757,66.79334282,11.86,'11111222,11111222,11111222' 
TABS,ioos:station:wmo:42047:1,2017-03-02T22:00:00Z,27.8966,-93.5973,4.0,10.10554303,68.15610692,12.77,'11111222,11111222,11111222' 
TABS,ioos:station:wmo:42047:1,2017-03-02T22:30:00Z,27.8966,-93.5973,4.0,9.54381999,69.00090915,11.97,'11111222,11111222,11111222' 
TABS,ioos:station:wmo:42047:1,2017-03-02T23:00:00Z,27.8966,-93.5973,4.0,9.418471214,63.10812264,11.45,'11111222,11111222,11111222' 
TABS,ioos:station:wmo:42047:1,2017-03-02T23:30:00Z,27.8966,-93.5973,4.0,9.373750583,63.10656511,12.27,'11111222,11111222,11111222' 
TABS,ioos:station:wmo:42047:1,2017-03-03T00:00:00Z,27.8966,-93.5973,4.0,8.644680445,63.25674586,10.42,'11111222,11111222,11111222' 
TABS,ioos:station:wmo:42047:1,2017-03-03T00:30:00Z,27.8966,-93.5973,4.0,8.258256475,60.39245562,10.11,'11111222,11111222,11111222' 
TABS,ioos:station:wmo:42047:1,2017-03-03T01:00:00Z,27.8966,-93.5973,4.0,8.899662915,63.14667463,11.42,'11111222,11111222,11111222' 
TABS,ioos:station:wmo:42047:1,2017-03-03T01:30:00Z,27.8966,-93.5973,4.0,8.550052631,61.72612126,11.28,'11111222,11111222,11111222' 
TABS,ioos:station:wmo:42047:1,2017-03-03T02:00:00Z,27.8966,-93.5973,4.0,8.386000238,62.67069335,10.71,'11111222,11111222,11111222' 
TABS,ioos:station:wmo:42047:1,2017-03-03T02:30:00Z,27.8966,-93.5973,4.0,8.483784533,63.76682252,11.06,'11111222,11111222,11111222' 
TABS,ioos:station:wmo:42047:1,2017-03-03T03:00:00Z,27.8966,-93.5973,4.0,8.747136674,72.0203775,10.5,'11111222,11111222,11111222' 
TABS,ioos:station:wmo:42047:1,2017-03-03T03:30:00Z,27.8966,-93.5973,4.0,8.570005834,71.14183495,10.21,'11111222,11111222,11111222' 
TABS,ioos:station:wmo:42047:1,2017-03-03T04:00:00Z,27.8966,-93.5973,4.0,8.920476445,75.85432302,11.12,'11111222,11111222,11111222' 
TABS,ioos:station:wmo:42047:1,2017-03-03T04:30:00Z,27.8966,-93.5973,4.0,8.53578936,70.77926911,10.39,'11111222,11111222,11111222' 
TABS,ioos:station:wmo:42047:1,2017-03-03T05:00:00Z,27.8966,-93.5973,4.0,8.539022192,73.32608142,10.8,'11111222,11111222,11111222' 
TABS,ioos:station:wmo:42047:1,2017-03-03T05:30:00Z,27.8966,-93.5973,4.0,8.50125873,73.95238634,10.67,'11111222,11111222,11111222' 
TABS,ioos:station:wmo:42047:1,2017-03-03T06:00:00Z,27.8966,-93.5973,4.0,9.148928899,78.97215734,11.17,'11111222,11111222,11111222' 
TABS,ioos:station:wmo:42047:1,2017-03-03T06:30:00Z,27.8966,-93.5973,4.0,8.791200146,73.74984022,10.83,'11111222,11111222,11111222' 
TABS,ioos:station:wmo:42047:1,2017-03-03T07:00:00Z,27.8966,-93.5973,4.0,9.276346263,78.49586189,11.07,'11111222,11111222,11111222' 
TABS,ioos:station:wmo:42047:1,2017-03-03T07:30:00Z,27.8966,-93.5973,4.0,9.449201024,78.21400407,11.63,'11111222,11111222,11111222' 
TABS,ioos:station:wmo:42047:1,2017-03-03T08:00:00Z,27.8966,-93.5973,4.0,8.710596994,81.28344284,10.81,'11111222,11111222,11111222' 
TABS,ioos:station:wmo:42047:1,2017-03-03T08:30:00Z,27.8966,-93.5973,4.0,9.291393867,87.16181589,11.1,'11111222,11111222,11111222' 
TABS,ioos:station:wmo:42047:1,2017-03-03T09:00:00Z,27.8966,-93.5973,4.0,9.841834179,88.89339818,12.06,'11111222,11111222,11111222' 
TABS,ioos:station:wmo:42047:1,2017-03-03T09:30:00Z,27.8966,-93.5973,4.0,9.573426764,83.94359787,11.87,'11111222,11111222,11111222' 
TABS,ioos:station:wmo:42047:1,2017-03-03T10:00:00Z,27.8966,-93.5973,4.0,10.32422878,85.33273162,12.19,'11111222,11111222,11111222' 
TABS,ioos:station:wmo:42047:1,2017-03-03T10:30:00Z,27.8966,-93.5973,4.0,10.49118678,81.28250238,12.96,'11111222,11111222,11111222' 
TABS,ioos:station:wmo:42047:1,2017-03-03T11:00:00Z,27.8966,-93.5973,4.0,10.73615387,83.63582856,12.82,'11111222,11111222,11111222' 
TABS,ioos:station:wmo:42047:1,2017-03-03T11:30:00Z,27.8966,-93.5973,4.0,10.76786423,86.6987427,13.71,'11111222,11111222,11111222' 
TABS,ioos:station:wmo:42047:1,2017-03-03T12:00:00Z,27.8966,-93.5973,4.0,11.51918834,92.28903762,14.19,'11111222,11111222,11111222' 
TABS,ioos:station:wmo:42047:1,2017-03-03T12:30:00Z,27.8966,-93.5973,4.0,11.15457305,92.92951086,14.13,'11111222,11111222,11111222' 
TABS,ioos:station:wmo:42047:1,2017-03-03T13:00:00Z,27.8966,-93.5973,4.0,12.01150282,90.90677101,14.11,'11111222,11111222,11111222' 
TABS,ioos:station:wmo:42047:1,2017-03-03T13:30:00Z,27.8966,-93.5973,4.0,11.45098249,90.75097596,13.84,'11111222,11111222,11111222' 
TABS,ioos:station:wmo:42047:1,2017-03-03T14:00:00Z,27.8966,-93.5973,4.0,11.61487408,95.03852443,13.86,'11111222,11111222,11111222' 
TABS,ioos:station:wmo:42047:1,2017-03-03T14:30:00Z,27.8966,-93.5973,4.0,11.82567546,98.02087388,13.95,'11111222,11111222,11111222' 
TABS,ioos:station:wmo:42047:1,2017-03-03T15:00:00Z,27.8966,-93.5973,4.0,11.6300172,90.09895159,13.72,'11111222,11111222,11111222' 
TABS,ioos:station:wmo:42047:1,2017-03-03T15:30:00Z,27.8966,-93.5973,4.0,12.21633333,98.56827215,14.58,'11111222,11111222,11111222' 
TABS,ioos:station:wmo:42047:1,2017-03-03T16:00:00Z,27.8966,-93.5973,4.0,11.40196474,102.7690199,14.27,'11111222,11111222,11111222' 
TABS,ioos:station:wmo:42047:1,2017-03-03T16:30:00Z,27.8966,-93.5973,4.0,12.39084339,99.2422665,14.99,'11111222,11111222,11111222' 
TABS,ioos:station:wmo:42047:1,2017-03-03T17:00:00Z,27.8966,-93.5973,4.0,12.26876114,98.62584332,14.42,'11111222,11111222,11111222' 
TABS,ioos:station:wmo:42047:1,2017-03-03T17:30:00Z,27.8966,-93.5973,4.0,11.86392852,94.93249681,14.38,'11111222,11111222,11111222' 
TABS,ioos:station:wmo:42047:1,2017-03-03T18:00:00Z,27.8966,-93.5973,4.0,11.37367135,100.0258864,14.15,'11111222,11111222,11111222' 
TABS,ioos:station:wmo:42047:1,2017-03-03T18:30:00Z,27.8966,-93.5973,4.0,10.77267376,101.4042028,13.67,'11111222,11111222,11111222' 
TABS,ioos:station:wmo:42047:1,2017-03-03T19:00:00Z,27.8966,-93.5973,4.0,10.52648564,99.57009987,13.36,'11111222,11111222,11111222' 
TABS,ioos:station:wmo:42047:1,2017-03-03T19:30:00Z,27.8966,-93.5973,4.0,10.72843884,104.8526799,12.74,'11111222,11111222,11111222' 
TABS,ioos:station:wmo:42047:1,2017-03-03T20:00:00Z,27.8966,-93.5973,4.0,10.36356116,104.1304928,13.12,'11111222,11111222,11111222' 
TABS,ioos:station:wmo:42047:1,2017-03-03T20:30:00Z,27.8966,-93.5973,4.0,9.692703441,107.9679989,12.09,'11111222,11111222,11111222' 
TABS,ioos:station:wmo:42047:1,2017-03-03T21:00:00Z,27.8966,-93.5973,4.0,10.11055389,107.7364154,11.9,'11111222,11111222,11111222' 
TABS,ioos:station:wmo:42047:1,2017-03-03T21:30:00Z,27.8966,-93.5973,4.0,10.28051555,109.8453962,12.82,'11111222,11111222,11111222' 
TABS,ioos:station:wmo:42047:1,2017-03-03T22:00:00Z,27.8966,-93.5973,4.0,10.34007737,111.2049714,12.11,'11111222,11111222,11111222' 
TABS,ioos:station:wmo:42047:1,2017-03-03T22:30:00Z,27.8966,-93.5973,4.0,10.67007029,111.9014933,13.34,'11111222,11111222,11111222' 
TABS,ioos:station:wmo:42047:1,2017-03-03T23:00:00Z,27.8966,-93.5973,4.0,10.53038461,108.4353266,12.8,'11111222,11111222,11111222' 
TABS,ioos:station:wmo:42047:1,2017-03-03T23:30:00Z,27.8966,-93.5973,4.0,10.2639661,111.1901792,13.6,'11111222,11111222,11111222' 
TABS,ioos:station:wmo:42047:1,2017-03-04T00:00:00Z,27.8966,-93.5973,4.0,10.11298176,108.3278302,12.02,'11111222,11111222,11111222' 
TABS,ioos:station:wmo:42047:1,2017-03-04T00:30:00Z,27.8966,-93.5973,4.0,9.978321502,105.4015504,11.98,'11111222,11111222,11111222' 
TABS,ioos:station:wmo:42047:1,2017-03-04T01:00:00Z,27.8966,-93.5973,4.0,9.837931693,108.6747477,11.98,'11111222,11111222,11111222' 
TABS,ioos:station:wmo:42047:1,2017-03-04T01:30:00Z,27.8966,-93.5973,4.0,10.23160789,112.8313054,12.29,'11111222,11111222,11111222' 
TABS,ioos:station:wmo:42047:1,2017-03-04T02:00:00Z,27.8966,-93.5973,4.0,10.11156269,116.3626841,12.19,'11111222,11111222,11111222' 
TABS,ioos:station:wmo:42047:1,2017-03-04T02:30:00Z,27.8966,-93.5973,4.0,9.870410326,106.7830258,11.92,'11111222,11111222,11111222' 
TABS,ioos:station:wmo:42047:1,2017-03-04T03:00:00Z,27.8966,-93.5973,4.0,10.25249238,112.9641403,12.65,'11111222,11111222,11111222' 
TABS,ioos:station:wmo:42047:1,2017-03-04T03:30:00Z,27.8966,-93.5973,4.0,10.36444885,115.3044664,12.46,'11111222,11111222,11111222' 
TABS,ioos:station:wmo:42047:1,2017-03-04T04:00:00Z,27.8966,-93.5973,4.0,10.35616242,113.3224546,12.46,'11111222,11111222,11111222' 
TABS,ioos:station:wmo:42047:1,2017-03-04T04:30:00Z,27.8966,-93.5973,4.0,10.1232801,114.3881096,12.07,'11111222,11111222,11111222' 
TABS,ioos:station:wmo:42047:1,2017-03-04T05:00:00Z,27.8966,-93.5973,4.0,9.937132383,118.2933003,12.37,'11111222,11111222,11111222' 
TABS,ioos:station:wmo:42047:1,2017-03-04T05:30:00Z,27.8966,-93.5973,4.0,10.00478386,120.0506739,12.7,'11111222,11111222,11111222' 
TABS,ioos:station:wmo:42047:1,2017-03-04T06:00:00Z,27.8966,-93.5973,4.0,10.21054847,117.2178946,13.07,'11111222,11111222,11111222' 
TABS,ioos:station:wmo:42047:1,2017-03-04T06:30:00Z,27.8966,-93.5973,4.0,9.769037824,117.6933379,11.58,'11111222,11111222,11111222' 
TABS,ioos:station:wmo:42047:1,2017-03-04T07:00:00Z,27.8966,-93.5973,4.0,10.12696401,124.4593272,12.77,'11111222,11111222,11111222' 
TABS,ioos:station:wmo:42047:1,2017-03-04T07:30:00Z,27.8966,-93.5973,4.0,9.383629362,119.2150832,11.5,'11111222,11111222,11111222' 
TABS,ioos:station:wmo:42047:1,2017-03-04T08:00:00Z,27.8966,-93.5973,4.0,8.828884414,117.3780597,10.55,'11111222,11111222,11111222' 
TABS,ioos:station:wmo:42047:1,2017-03-04T08:30:00Z,27.8966,-93.5973,4.0,7.993459827,122.1196974,9.82,'11111222,11111222,11111222' 
TABS,ioos:station:wmo:42047:1,2017-03-04T09:00:00Z,27.8966,-93.5973,4.0,8.132976085,114.1702904,10.23,'11111222,11111222,11111222' 
TABS,ioos:station:wmo:42047:1,2017-03-04T09:30:00Z,27.8966,-93.5973,4.0,8.255955426,116.0067486,9.79,'11111222,11111222,11111222' 
TABS,ioos:station:wmo:42047:1,2017-03-04T10:00:00Z,27.8966,-93.5973,4.0,8.559515173,121.0903826,10.6,'11111222,11111222,11111222' 
TABS,ioos:station:wmo:42047:1,2017-03-04T10:30:00Z,27.8966,-93.5973,4.0,9.213956805,125.1910364,11.8,'11111222,11111222,11111222' 
TABS,ioos:station:wmo:42047:1,2017-03-04T11:00:00Z,27.8966,-93.5973,4.0,9.211308268,124.2942258,11.01,'11111222,11111222,11111222' 
TABS,ioos:station:wmo:42047:1,2017-03-04T11:30:00Z,27.8966,-93.5973,4.0,9.412852915,132.5892916,11.33,'11111222,11111222,11111222' 
TABS,ioos:station:wmo:42047:1,2017-03-04T12:00:00Z,27.8966,-93.5973,4.0,9.603176558,135.6753436,11.58,'11111222,11111222,11111222' 
TABS,ioos:station:wmo:42047:1,2017-03-04T12:30:00Z,27.8966,-93.5973,4.0,9.640752045,131.5943793,12.43,'11111222,11111222,11111222' 
TABS,ioos:station:wmo:42047:1,2017-03-04T13:00:00Z,27.8966,-93.5973,4.0,10.63286415,124.8113659,13.08,'11111222,11111222,11111222' 
TABS,ioos:station:wmo:42047:1,2017-03-04T13:30:00Z,27.8966,-93.5973,4.0,9.933559282,127.8854335,12.18,'11111222,11111222,11111222' 
TABS,ioos:station:wmo:42047:1,2017-03-04T14:00:00Z,27.8966,-93.5973,4.0,9.929320218,129.6064178,12.14,'11111222,11111222,11111222' 
TABS,ioos:station:wmo:42047:1,2017-03-04T14:30:00Z,27.8966,-93.5973,4.0,9.712491956,125.5723038,12.03,'11111222,11111222,11111222' 
TABS,ioos:station:wmo:42047:1,2017-03-04T15:00:00Z,27.8966,-93.5973,4.0,9.551570551,129.6906934,11.65,'11111222,11111222,11111222' 
TABS,ioos:station:wmo:42047:1,2017-03-04T15:30:00Z,27.8966,-93.5973,4.0,9.388013634,126.7725833,11.34,'11111222,11111222,11111222' 
TABS,ioos:station:wmo:42047:1,2017-03-04T16:00:00Z,27.8966,-93.5973,4.0,9.861931859,124.8828894,12.17,'11111222,11111222,11111222' 
TABS,ioos:station:wmo:42047:1,2017-03-04T16:30:00Z,27.8966,-93.5973,4.0,9.688642836,122.9523159,11.78,'11111222,11111222,11111222' 
TABS,ioos:station:wmo:42047:1,2017-03-04T17:00:00Z,27.8966,-93.5973,4.0,10.20901562,127.6784245,12.13,'11111222,11111222,11111222' 
TABS,ioos:station:wmo:42047:1,2017-03-04T17:30:00Z,27.8966,-93.5973,4.0,9.403063331,129.6498654,11.07,'11111222,11111222,11111222' 
TABS,ioos:station:wmo:42047:1,2017-03-04T18:00:00Z,27.8966,-93.5973,4.0,9.746240301,133.7531474,11.78,'11111222,11111222,11111222' 